Regional Weather Roundup
Issued by NWS Cleveland, OH

Home | Current Version | Previous Version | Graphics & Text | Print | Product List | Glossary On
Versions: 1 2 3 4 5 6 7 8 9 10 11 12 13 14 15 16 17 18 19 20 21 22 23 24 25 26 27 28 29 30 31 32 33 34 35 36 37 38 39 40 41 42 43 44 45 46 47 48 49 50
000
ASUS41 KCLE 072002
RWRCLE
OHIO REGIONAL WEATHER ROUNDUP
NATIONAL WEATHER SERVICE CLEVELAND, OH
300 PM EST SUN FEB 07 2016

NOTE: "FAIR" INDICATES FEW OR NO CLOUDS BELOW 12,000 FEET WITH NO
SIGNIFICANT WEATHER AND/OR OBSTRUCTIONS TO VISIBILITY.

OHZ001>008-015>018-024>027-034-035-043-044-072100-
   NORTHWEST OHIO

CITY           SKY/WX    TMP DP  RH WIND       PRES   REMARKS
DEFIANCE       CLOUDY    49  31  49 S16G22    29.80F
FINDLAY        SUNNY     51  29  42 SW25G33   29.83F
TOLEDO EXPRESS CLOUDY    49  29  46 S15G26    29.80F
TOLEDO EXEC    SUNNY     51  30  44 SW24G33   29.81F
LIMA           SUNNY     49  29  46 S17G26    29.84F
$$

OHZ009>014-019>023-028>033-038-089-072100-
   NORTHEAST OHIO

CITY           SKY/WX    TMP DP  RH WIND       PRES   REMARKS
CLE-HOPKINS    PTSUNNY   51  29  42 S15       29.90F
CLE-LAKEFRONT  CLOUDY    54  28  36 SW14      29.87F
CUY CO. ARPT   PTSUNNY   54  30  40 SW16      29.89F
LORAIN-ELYRIA  CLOUDY    50  28  42 SW22G28   29.88F
ASHTABULA      SUNNY     49  28  44 S8        29.90F
AKRON-CANTON   MOSUNNY   50  27  40 SW10      29.91F
WOOSTER        SUNNY     49  30  48 SW14      29.90F
MANSFIELD      CLOUDY    48  27  44 SW20G25   29.88F
YOUNGSTOWN     PTSUNNY   49  25  39 S8        29.92F
$$

OHZ042-051>053-060>062-070>072-077>081-072100-
  SOUTHWEST OHIO

CITY           SKY/WX    TMP DP  RH WIND       PRES   REMARKS
CINC-COVINGTON MOSUNNY   53  20  27 SW15G24   29.92F
CINC-LUNKEN    SUNNY     54  24  31 S18G28    29.94F
HAMILTON       SUNNY     54  21  27 SW9G26    29.92F
DAYTON         MOSUNNY   51  23  33 SW23G29   29.89F
WRIGHT-PAT AFB NOT AVBL
DAYTON GENERAL SUNNY     52  21  29 SW17G28   29.90F
WILMINGTON     SUNNY     51  24  34 SW21G26   29.91F
$$

OHZ036-037-039>041-045>050-054>059-063>069-073>076-082>088-072100-
  CENTRAL AND SOUTHEAST OHIO

CITY           SKY/WX    TMP DP  RH WIND       PRES   REMARKS
COLUMBUS       PTSUNNY   51  23  33 SW14G22   29.92F
OSU AIRPORT    SUNNY     51  26  37 SW21G26   29.90F
BOLTON FIELD   SUNNY     50  28  43 SW14      29.92F
RICKENBACK AFB NOT AVBL
NEWARK         SUNNY     52  27  38 SW9       29.92F
MARION         CLOUDY    51  27  39 SW20G26   29.89F
LANCASTER      MOSUNNY   52  25  35 SW13      29.94F
ZANESVILLE     MOSUNNY   54  24  31 SW10      29.94F
NEW PHILLY     SUNNY     51  26  37 SW7       29.94F
$$



USA.gov is the U.S. government's official web portal to all federal, state and local government web resources and services.